Powrót do katalogu

STARLINK-5132

AktywnyŁącznośćVLEO
NORAD 54007·PAYLOAD·🇺🇸 United States

Wystrzelony Oct 5, 2022 z Vandenberg Space Force Base

Loading…

Następne Przeloty (najbliższe 24 godziny)

TLE

ŚwieżeSource: CelesTrak SupGP

Epoka: Sep 15, 2026, 01:21 UTC

1 54007C 22125AV  26258.05673611  .00007246  00000+0  45440-3 0  2586
2 54007  53.1572  83.0348 0001336  86.8278 342.7445 15.08832873    14

Śledź STARLINK-5132 w czasie rzeczywistym z AllMySat

Download on the App Store